C/2017 K1 ( PanSTARRS )

Japanese version
Home page
Updated on April 4, 2021

---------------------------------------------------------------------

* Profile

Discovery Date May 21, 2017
Magnitude 20.3 mag
Discoverer Pan-STARRS 1 telescope (Haleakala)

* Pictures

* Orbital Elements

Epoch 2018 Mar. 23.0 TT = JDT 2458200.5                                         
T 2018 Mar. 14.23810 TT                                 Rudenko                 
q   7.2856045            (2000.0)            P               Q                  
z  -0.0003373      Peri.    4.16496     -0.74396666     -0.59020417             
 +/-0.0000014      Node   225.64224     -0.62504127     +0.44883848             
e   1.0024572      Incl.  154.00937     -0.23629856     +0.67097173             
From 124 observations 2015 Sept. 1-2019 May 27, mean residual 0".6.             

* Magnitudes Graph

        m1 = -2.0 + 5 log d + 20.0 log r

---------------------------------------------------------------------

The orbital elements are published on M.P.E.C. 2021-F20.
The magnitudes graphs are made with Comet for Windows.

---------------------------------------------------------------------

Copyright(C) Seiichi Yoshida (comet@aerith.net). All rights reserved.